Flag for U.S.A. Weather past 2 weeks in Provo, Utah, U.S.A.

Now
37 °F

Passing clouds.


Feels Like: 35 °F
Forecast: 34 / 45 °F
Wind: 3 mph from North

Location: Provo Municipal

Current Time: Jan 30, 2015 at 5:02:44 AM

Latest Report: Jan 30, 2015 at 4:35 AM


Visibility: 5 mi

Pressure: 30.19 "Hg

Humidity: 93%

Dew point: 36 °F

Location of ProvoLocation

Historic Weather in Provo — Graph

°F

Provo temperature yesterday

Maximum temperature yesterday: 43 °F (at 2:59 PM)
Minimum temperature yesterday: 27 °F (at 6:35 AM)
Average temperature yesterday: 34 °F

Past Weeks' High & Low Weather Summary

 TemperatureHumidityPressure
High54 °F (Jan 18, 1:47 PM)100% (Jan 17, 1:15 AM)30.54 "Hg (Jan 17, 1:15 AM)
Low18 °F (Jan 22, 5:35 AM)38% (Jan 18, 1:47 PM)30.17 "Hg (Jan 16, 12:50 PM)
Average31 °F79%30.34 "Hg
* Reported Jan 15 3:15 AM — Jan 30 3:55 AM, Provo, Weather by CustomWeather, © 2014

Note: Actual official high and low records may vary slightly from our data, if they occured in-between our weather recording intervals... More about our weather records

Advertising

Provo weather history for previous 24 hours

 ConditionsComfort  
Time TempWeatherWind HumidityBarometerVisibility
3:55 AM
Jan 30
37 °FOvercast.No wind87%30.20 "Hg5 mi
3:35 AM37 °FMostly cloudy.No wind87%30.21 "Hg7 mi
3:15 AM37 °FMostly cloudy.3 mph87%30.21 "Hg7 mi
2:55 AM37 °FOvercast.No wind87%30.21 "Hg5 mi
2:35 AM37 °FOvercast.3 mph93%30.22 "Hg7 mi
2:15 AM37 °FOvercast.No wind87%30.22 "Hg5 mi
1:55 AM37 °FOvercast.No wind93%30.22 "Hg7 mi
1:35 AM37 °FOvercast.No wind93%30.23 "Hg7 mi
1:15 AM37 °FOvercast.No wind87%30.22 "Hg5 mi
12:55 AM37 °FOvercast.No wind87%30.23 "Hg5 mi
12:35 AM37 °FOvercast.3 mph87%30.23 "Hg7 mi
12:15 AM37 °FOvercast.5 mph87%30.24 "Hg5 mi
11:55 PM
Jan 29
36 °FPassing clouds.3 mph87%30.24 "Hg6 mi
11:35 PM37 °FClear.No wind87%30.25 "Hg7 mi
11:15 PM36 °FClear.No wind87%30.25 "Hg7 mi
10:55 PM37 °FClear.No wind87%30.26 "Hg7 mi
10:35 PM37 °FClear.No wind87%30.27 "Hg7 mi
10:15 PM36 °FClear.No wind87%30.27 "Hg5 mi
9:55 PM36 °FClear.3 mph87%30.27 "Hg7 mi
9:35 PM37 °FClear.No wind87%30.27 "Hg7 mi
9:15 PM37 °FClear.No wind81%30.27 "Hg7 mi
7:50 PM37 °FOvercast.No wind87%30.26 "Hg7 mi
6:55 PM37 °FOvercast.No wind81%30.25 "Hg7 mi
5:47 PM39 °FOvercast.No wind75%30.25 "Hg7 mi
4:50 PM41 °FOvercast.No wind70%30.25 "Hg8 mi
3:55 PM43 °FOvercast.No wind66%30.25 "Hg10 mi
2:59 PM43 °FFog.5 mph66%30.26 "Hg10 mi
1:55 PM41 °FFog.3 mph76%30.28 "Hg7 mi
12:49 PM39 °FFog.5 mph81%30.32 "Hg7 mi
11:50 AM37 °FScattered clouds.6 mph75%30.35 "Hg7 mi
10:47 AM37 °FFog.3 mph75%30.38 "Hg3 mi
9:47 AM34 °FFog.No wind87%30.38 "Hg1 mi
8:52 AM32 °FIce fog.No wind93%30.36 "Hg2 mi
7:52 AM28 °FIce fog.No wind100%30.36 "Hg5 mi
6:47 AM28 °FClear.No wind86%30.35 "Hg7 mi
6:35 AM27 °FClear.3 mph93%30.35 "Hg2 mi
6:15 AM28 °FClear.No wind93%30.35 "Hg2 mi
5:55 AM28 °FClear.No wind93%30.36 "Hg3 mi
5:35 AM28 °FClear.3 mph93%30.36 "Hg2 mi
5:15 AM28 °FClear.No wind93%30.37 "Hg2 mi
Weather by CustomWeather, © 2014

See weather overviewHow to use our weather pages